Terug naar catalogus

STARLINK-5376

ActiefCommunicatieVLEO
NORAD 56142·PAYLOAD·🇺🇸 United States

Gelanceerd Mar 29, 2023 vanaf Cape Canaveral Space Force Station

Loading…

Volgende Passages (komende 24 uur)

TLE

VersSource: CelesTrak SupGP

Epoch: Sep 15, 2026, 02:46 UTC

1 56142C 23046BB  26258.11576389  .00028695  00000+0  10394-2 0  2582
2 56142  43.0025 156.9003 0001532 274.6342  99.8357 15.27560791    12

Volg STARLINK-5376 in realtime met AllMySat

Download on the App Store